Regional Weather Roundup
Issued by NWS Goodland, KS

Home | Current Version | Previous Version | Graphics & Text | Print | Product List | Glossary On
Versions: 1 2 3 4 5 6 7 8 9 10 11 12 13 14 15 16 17 18 19 20 21 22 23 24 25 26 27 28 29 30 31 32 33 34 35 36 37 38 39 40 41 42 43 44 45 46 47 48 49 50
000
ASUS43 KGLD 241408
RWRGLD

GOODLAND FORECAST AREA HOURLY WEATHER ROUNDUP
NATIONAL WEATHER SERVICE GOODLAND KS
800 AM MDT SUN JUL 24 2016

...OFFICIAL OBSERVATIONS...

CITY           SKY/WX    TMP DP  RH WIND       PRES   REMARKS
GOODLAND KS    CLOUDY    76  61  59 E15G22    30.08R
HILL CITY KS   CLOUDY    74  67  78 NE12      29.98R
IMPERIAL NEB   MOSUNNY   70  59  68 N8        30.12R
MCCOOK NEB     PTSUNNY   73  63  70 NE6       30.07R
AKRON CO       CLOUDY    73  57  57 NE9       30.18R
BURLINGTON CO  SUNNY     75  63  66 NE7       30.13R
LIMON CO       SUNNY     71  54  54 VRB3      30.21R
$$

...UNOFFICIAL OBSERVATIONS...

CITY           SKY/WX    TMP DP  RH WIND       PRES   REMARKS
COLBY KS       SUNNY     75  64  69 NE17      30.05R
LENORA KS        N/A     72  32  23 MISG        N/A
NORTON KS      SUNNY     73  61  64 NE12      30.01S
YUMA CO          N/A     75  57  54 E12         N/A
$$




USA.gov is the U.S. government's official web portal to all federal, state and local government web resources and services.